Regional Weather Roundup
Issued by NWS

Home | Current Version | Previous Version | Text Only | Print | Product List | Glossary Off
Versions: 1 2 3 4 5 6 7 8 9 10 11 12 13 14 15 16 17 18 19 20 21 22 23 24 25 26 27 28 29 30 31 32 33 34 35 36 37 38 39 40 41 42 43 44 45 46 47 48 49 50

000
ASUS43 KDTX 251101
RWRMI
MICHIGAN HOURLY REGIONAL WEATHER ROUNDUP
NATIONAL WEATHER SERVICE DETROIT/PONTIAC MI
700 AM EDT TUE JUL 25 2017

NOTE: "FAIR" INDICATES FEW OR NO CLOUDS BELOW 12,000 FEET WITH NO
SIGNIFICANT WEATHER AND/OR OBSTRUCTION TO VISIBILITY.

MIZ047>049-052>055-059>063-066>070-074>076-081>083-251200-
SOUTHEAST LOWER MICHIGAN

CITY           SKY/WX    TMP DP  RH WIND       PRES   REMARKS
ADRIAN         CLEAR     51  50  96 CALM      30.21R
ALMA           CLEAR     50  49  97 CALM      30.22R
ANN ARBOR      CLEAR     46  46 100 CALM      30.20R FOG
BAD AXE        CLEAR     47  47  99 CALM      30.21R
CARO           CLEAR     48  47  95 CALM      30.20R
DETROIT CITY   PTCLDY    59  51  75 N5        30.19R
DETROIT        PTCLDY    57  51  80 N5        30.19S
FLINT          CLEAR     49  48  97 CALM      30.21R
GROSSE ILE     CLEAR     57  52  85 NW5       30.18R
HILLSDALE      CLEAR     50  48  93 CALM      30.20R
HOWELL         CLEAR     52  51  97 CALM      30.20R

CITY           SKY/WX    TMP DP  RH WIND       PRES   REMARKS
JACKSON        CLEAR     52  50  93 CALM      30.20R
LAMBERTVILLE   CLEAR     50  50  97 CALM      30.19R
LANSING        CLEAR     53  51  93 CALM      30.21R
LAPEER         FAIR      49  49  99 CALM      30.21R
MASON          FOG       50  50 100 E5        30.21R VSB 1/2
MONROE         CLEAR     52  51  97 CALM      30.18R
MT. CLEMENS    CLEAR     55  52  89 NW3       30.17R
PONTIAC        PTCLDY    55  52  89 N3        30.19R
PORT HOPE        N/A     55  53  93 W5        30.19R
PORT HURON     CLEAR     55  54  94 NW6       30.19R
TRI CITIES     CLEAR     55  55 100 W3        30.22R
MIDLAND        FOG       50  50 100 CALM      30.20R VSB<1/4
TROY           CLEAR     59  49  69 N3        30.21R
SAGINAW HB     CLEAR     52  50  93 CALM      30.21R
$$
MIZ043>046-050>051-056>058-064>065-071>073-077>080-251200-
SOUTHWEST LOWER MICHIGAN

CITY           SKY/WX    TMP DP  RH WIND       PRES   REMARKS
BATTLE CREEK   CLEAR     55  54  96 CALM      30.21R
BENTON HARBOR  CLEAR     55  52  89 SE5       30.19R
BIG RAPIDS     CLOUDY    53  51  93 CALM      30.21R
COLDWATER      CLEAR     53  53 100 CALM      30.21R
FREMONT        FAIR      56  53  88 SE3       30.20R
HOLLAND        PTCLDY    57  54  89 S5        30.20R
GRAND RAPIDS   MOCLDY    58  54  86 CALM      30.21R
IONIA          FOG       52  52 100 CALM      30.21R VSB<1/4
KALAMAZOO      CLEAR     56  53  90 CALM      30.22R
LUDINGTON      PTCLDY    55  54  95 E5        30.18R
MARSHALL       FOG       52  51  98 CALM      30.21R VSB<1/4
MOUNT PLEASANT FOG       54  51  91 CALM      30.21R VSB 1/4
MUSKEGON       MOCLDY    58  56  93 SE6       30.20R
SOUTH HAVEN    CLEAR     58  58  99 CALM      30.20R
$$
MIZ016>042-251200-
NORTHERN LOWER MICHIGAN

CITY           SKY/WX    TMP DP  RH WIND       PRES   REMARKS
ALPENA         PTCLDY    53  53 100 W3        30.21R
BELLAIRE       CLEAR     46  45  96 CALM      30.21R
CADILLAC       CLEAR     49  46  90 CALM      30.21R
CHARLEVOIX     CLEAR     54  51  92 E3        30.22R
FRANKFORT      PTCLDY    49  49  99 CALM      30.18S
GAYLORD        CLEAR     48  43  82 CALM      30.22R
GRAYLING       CLEAR     42  40  92 CALM      30.23R
HARBOR SPRINGS CLEAR     51  49  95 CALM      30.21R
HOUGHTON LAKE  CLEAR     47  46  97 CALM      30.22R
MANISTEE       PTCLDY    51  50  96 E3        30.19R
OSCODA         CLEAR     52  49  89 CALM      30.20R
PELLSTON       CLEAR     46  45  96 CALM      30.21R
ROGERS CITY    CLEAR     53  51  92 SW6       30.21R
TRAVERSE CITY  MOCLDY    50  48  93 CALM      30.19R
$$
MIZ007>008-015-251200-
EASTERN UPPER MICHIGAN

CITY           SKY/WX    TMP DP  RH WIND       PRES   REMARKS
KINROSS        CLEAR     53  50  89 CALM      30.20R
MACKINAC ISLAN CLEAR     54  54 100 NW3       30.20R
NEWBERRY       CLEAR     46  45  97 CALM      30.19R
S. S. MARIE    CLEAR     54  52  93 CALM      30.19R
MUNISING         N/A     57  56  96 S7        30.15S
$$
MIZ004>006-011>014-085-251200-
CENTRAL UPPER MICHIGAN

CITY           SKY/WX    TMP DP  RH WIND       PRES   REMARKS
MANISTIQUE     FOG       47  45  90 CALM      30.19R VSB 3/4
ESCANABA       PTCLDY    50  50 100 CALM      30.16S FOG
MENOMINEE      PTCLDY    53  53 100 CALM      30.18R
SAWYER-GWINN   CLEAR     52  50  93 CALM      30.18R
$$
MIZ001>003-009>011-084-251200-
WESTERN UPPER MICHIGAN

CITY           SKY/WX    TMP DP  RH WIND       PRES   REMARKS
IRON MOUNTAIN  PTCLDY    52  48  86 CALM      30.16R
HOUGHTON       CLEAR     59  53  80 CALM      30.12R
COPPER HARBOR    N/A     62  54  74 SW7       30.11R
IRONWOOD       CLEAR     60  55  83 S8        30.11S
$$

ABBREVIATIONS USED IN REMARKS
   TC - TEMPERATURE IN CELSIUS
  WCI - WIND CHILL INDEX
   HX - HEAT INDEX
  VSB - VISIBILITY





USA.gov is the U.S. government's official web portal to all federal, state and local government web resources and services.